Retour au catalogue

STARLINK-38132

ActifCommunicationsSSO
NORAD 100154·PAYLOAD·🇺🇸 United States

Lancé Jul 25, 2026 depuis Vandenberg Space Force Base

Loading…

Prochains Passages (prochaines 24 heures)

TLE

FraisSource: Space-Track

Époque: Sep 14, 2026, 22:35 UTC

1 A0154U 26171G   26257.94154931  .00007121  00000-0  19912-3 0  9991
2 A0154  97.2837 290.4540 0001023  86.1528 273.9834 15.36979615  8048

Suivez STARLINK-38132 en temps réel avec AllMySat

Download on the App Store